Location: Shandelee
(41.8790°N, 74.8713°W)
Time: 03:17:24
(UTC+00:00)

Cosmos 1386 Rocket - Pass Details

Date: 29 October 2020
Orbit: 930 x 1005 km, 83.0° (Epoch: 23 November)

Event Time Altitude Azimuth Distance (km) Brightness Sun altitude
Rises 23:30:35 0° 352° (N) 3,741 7.6 -18.0°
Reaches altitude 10° 23:33:08 10° 353° (N) 2,784 6.9 -18.4°
Maximum altitude 23:39:34 87° 83° (E) 1,001 4.5 -19.6°
Drops below altitude 10° 23:45:51 10° 173° (S) 2,728 6.8 -20.8°
Sets 23:48:20 0° 174° (S) 3,661 7.4 -21.3°
